Location: Seasalter
(51.3333°N, 1.0167°E)
Time: 05:16:43
(UTC+00:00)

ATLAS 5 CENTAUR R/B - Pass Details

Date: 24 April 2024
Orbit: 421 x 1170 km, 63.3° (Epoch: 18 May)

Event Time Altitude Azimuth Distance (km) Brightness Sun altitude
Rises 01:18:30 0° 315° (NW) 2,874 5.3 -23.1°
Reaches altitude 10° 01:20:33 10° 316° (NW) 2,066 4.5 -23.0°
Maximum altitude 01:25:17 87° 44° (NE) 768 1.9 -22.7°
Drops below altitude 10° 01:31:14 10° 136° (SE) 2,568 4.5 -22.3°
Sets 01:34:01 0° 137° (SE) 3,629 5.3 -22.1°
